Weather in Yar

Russia / Sverdlovsk Oblast     56°58′18″N   64°16′02″E
temp.,
°C
wind,
m/s
gust,
m/s
humid.,
%
clouds,
%
prec.,
mm/h
press.,
hPa
HPBL,
m
20 june, sun
sun2023:00+13wsw3997100 0.7 1009359
02:00+13sw379898 0.1 1007296
05:00+13wsw4129990 0.8 1005444
08:00+16nw613874 0.1 10041151
11:00+18nw814381 0.1 10051795
14:00+19nw815304 0.0 10062557
17:00+18nnw917345 0.0 10082604
20:00+15nnw9194299 0.0 10092316
21 june, mon
mon2123:00+11nnw81664100 0.0 10111619
02:00+11nnw7156498 0.0 10121363
05:00+10nnw71468100 0.0 1015983
08:00+10nnw61369100 0.0 1018882
11:00+16n575468 0.0 10191380
14:00+17n5655100 0.1 10201431
17:00+17nw355098 0.1 10201316
20:00+16w2360100 0.0 101956
22 june, tue
tue2223:00+13w1169100 0.0 101924
02:00+13nw2260100 0.0 101952
05:00+12wnw1155100 0.0 101922
08:00+12ssw116599 0.0 101924
11:00+16sw225286 0.0 1018693
14:00+18wsw124852 0.0 10181121
17:00+20n245080 0.0 10171454
20:00+18ne3661100 0.0 1017365
23 june, wed
wed2323:00+14e1167100 0.0 101726
02:00+12wnw2280100 0.3 101843
05:00+11nnw2594100 0.7 1019214
08:00+13nnw138558 0.0 1019245
11:00+19ene234027 0.0 10192053
14:00+21n233592 0.0 10182532
17:00+19nnw2345100 0.0 10191105
20:00+17n12585 0.0 101820
24 june, thu
thu2423:00+14wnw2269100 0.0 101942
02:00+13nw2274100 0.0 101941
05:00+12wnw2473100 0.0 1019120
08:00+15wnw236175 0.0 1019329
11:00+21wnw223822 0.0 10172109
14:00+23wnw223388 0.0 10162372
17:00+23nw22347 0.0 10152223
20:00+19sw246088 0.0 1014102